Regional Weather Roundup
Issued by NWS Kansas City/Pleasant Hill, MO

Home | Current Version | Previous Version | Graphics & Text | Print | Product List | Glossary Off
Versions: 1 2 3 4 5 6 7 8 9 10 11 12 13 14 15 16 17 18 19 20 21 22 23 24 25 26 27 28 29 30 31 32 33 34 35 36 37 38 39 40 41 42 43 44 45 46 47 48 49 50

000
ASUS43 KEAX 230004
RWREAX

WEATHER ROUNDUP FOR EASTERN KANSAS AND NORTHWEST MISSOURI
NATIONAL WEATHER SERVICE KANSAS CITY/PLEASANT HILL MO
700 PM CDT TUE APR 22 2014

KSZ040-057-103>105-MOZ028-029-037-043-230100-
...KANSAS CITY METROPOLITAN AREA...

CITY           SKY/WX    TMP DP  RH WIND       PRES   REMARKS
K.C. INTL      MOSUNNY   66  33  29 E7        30.01F
6HR MIN TEMP:  62; 6HR MAX TEMP:  69;

K.C. DOWNTOWN  SUNNY     67  34  29 E7        29.99F
6HR MIN TEMP:  64; 6HR MAX TEMP:  71;

LEES SUMMIT    SUNNY     65  36  34 E8        30.01F
6HR MIN TEMP:  62; 6HR MAX TEMP:  69;

OLATHE - IXD   SUNNY     68  30  24 SE7       30.00F
6HR MIN TEMP:  64; 6HR MAX TEMP:  71;

OLATHE - OJC   SUNNY     67  30  25 CALM      29.99F
6HR MIN TEMP:  63; 6HR MAX TEMP:  70;

LAWRENCE       SUNNY     70  32  24 VRB3      29.99F

$$

MOZ001>008-011>017-020>025-030>033-038>040-044>046-053-054-230100-
...NORTHERN AND CENTRAL MISSOURI...

CITY           SKY/WX    TMP DP  RH WIND       PRES   REMARKS
ST. JOSEPH     SUNNY     66  33  29 E7        30.00F
6HR MIN TEMP:  63; 6HR MAX TEMP:  70;

MOSBY            N/A     66  32  28 NE5       30.01F
WHITEMAN AFB   SUNNY     64  29  26 NE3       30.00F
6HR MIN TEMP:  61; 6HR MAX TEMP:  67;

CLINTON        SUNNY     66  37  34 CALM      30.02S
SEDALIA        CLEAR     67  34  29 N6        30.01F
6HR MIN TEMP:  62; 6HR MAX TEMP:  70;

WARSAW         NOT AVBL
MARSHALL         N/A     68  34  28 NE3       30.02S
CHILLICOTHE      N/A     66  32  28 NE6       30.03F
6HR MIN TEMP:  61; 6HR MAX TEMP:  68;

MOBERLY        CLEAR     64  32  29 NE8       30.03S
KIRKSVILLE     CLEAR     62  33  33 N9        30.03S
6HR MIN TEMP:  61; 6HR MAX TEMP:  67;


$$

MOZ041-047>049-056>058-063>065-088>090-097-230100-
...EASTERN AND SOUTHERN MISSOURI...

CITY           SKY/WX    TMP DP  RH WIND       PRES   REMARKS
ST. LOUIS INTL PTCLDY    66  33  29 NW10      29.99S
6HR MIN TEMP:  65; 6HR MAX TEMP:  69;

SPIRIT OF STL  CLEAR     65  31  28 N7        29.99R
COLUMBIA       CLEAR     63  37  38 N8        30.01S
JEFFERSON CITY CLEAR     66  32  28 NE10      30.00S
MEXICO         CLEAR     61  36  39 N9        30.01F
HANNIBAL       CLEAR     64  25  22 N8        30.01F
ROLLA          CLEAR     63  35  35 NW8       29.99S
LEBANON        CLEAR     66  28  24 N8        30.00F
OSAGE BEACH    CLEAR     64  30  27 NW6       30.01F
SPRINGFIELD    CLEAR     68  38  33 N7        29.99F
BRANSON        CLEAR     68  36  30 NW9       30.00S
NEVADA         SUNNY     66  37  34 NE6       30.01F
JOPLIN         SUNNY     68  36  30 NE6       30.00F
WEST PLAINS    CLEAR     68  34  28 N9        29.98R
MALDEN         CLEAR     72  37  28 NE9       29.94S

$$

IAZ060-094-KSZ022-034>040-054-083-096-NEZ052-066-093-230100-
...KANSAS...SOUTHEAST NEBRASKA AND IOWA...

CITY           SKY/WX    TMP DP  RH WIND       PRES   REMARKS
TOPEKA         SUNNY     71  33  24 E8        29.98F
6HR MIN TEMP:  65; 6HR MAX TEMP:  74;

MANHATTAN      MOSUNNY   71  33  24 SE10      29.95F
EMPORIA        SUNNY     69  30  23 E9        29.97F
CHANUTE        SUNNY     70  36  28 NE7       29.99F
WICHITA        PTSUNNY   72  30  21 SE13      29.94F
OMAHA          CLOUDY    67  32  27 E14       29.98F
LINCOLN        PTSUNNY   69  32  25 SE12      29.95F
FALLS CITY     MOSUNNY   66  33  29 SE8       29.98F
LAMONI         SUNNY     63  34  33 NE5       30.02F
DES MOINES     MOSUNNY   65  30  27 NE5       30.02S

$$




USA.gov is the U.S. government's official web portal to all federal, state and local government web resources and services.